Lapse_Rate
1.2 1.3 1.0 0.9 0.5 0.1 -0.1 -0.2 -0.2 -0.3 -0.3 -0.3 -0.4 -0.2 -0.1 -0.2 0.2 1.5 4.0 4.1 3.2 3.5 3.4 3.8 4.9 5.4 5.3 5.5 5.5 3.6 6.5 6.5 6.5 6.5 6.5 6.0 6.5 5.7 4.8 4.2 2.6 2.0 2.2 3.3 5.0
1.1 0.9 0.8 0.7 0.3 -0.0 -0.1 -0.3 -0.1 -0.2 -0.2 -0.1 -0.1 -0.1 -0.1 0.0 2.2 3.4 3.6 3.4 3.6 3.5 4.3 4.9 5.3 5.5 4.1 5.4 4.4 5.2 6.5 6.5 6.5 6.5 6.5 6.3 6.2 5.5 5.8 5.3 4.5 3.5 1.9 3.4 4.2
0.8 0.8 0.4 0.2 0.1 -0.1 -0.1 -0.2 -0.4 -0.3 -0.1 -0.1 -0.1 -0.1 -0.0 0.1 4.1 5.3 3.2 3.4 3.5 3.4 3.9 4.6 5.2 5.9 5.9 5.6 5.6 5.9 6.5 6.5 6.3 6.0 5.7 6.3 6.2 6.0 5.3 6.5 3.7 3.2 2.4 4.0 3.8
0.4 0.3 0.2 -0.1 -0.3 -0.5 -0.5 -0.3 -0.2 -0.1 -0.0 -0.0 -0.0 0.0 0.3 1.7 6.5 4.1 3.0 3.3 3.4 3.2 4.1 5.2 6.0 5.9 6.3 6.5 5.6 6.5 6.3 6.2 6.0 5.4 5.9 6.4 5.6 6.2 5.1 5.3 3.2 0.9 1.5 3.4 4.2
0.4 -0.1 -0.3 -0.5 -0.5 -0.7 -0.8 -0.7 -0.5 0.1 0.2 0.2 0.2 0.5 1.6 4.8 4.5 4.0 3.2 3.4 3.1 3.9 5.0 5.5 5.7 5.8 6.5 6.3 6.1 6.5 6.4 5.8 5.5 5.5 5.7 5.7 6.1 6.2 5.5 3.3 0.1 1.7 2.8 3.3 4.0
0.2 -0.2 -0.7 -0.7 -0.7 -0.9 -0.7 -0.7 -0.3 0.1 0.4 0.4 0.6 0.8 3.9 6.2 4.2 3.9 3.6 3.2 4.3 4.6 5.3 5.3 5.4 5.6 5.8 6.2 6.4 5.8 6.0 6.1 5.7 6.0 6.0 6.4 6.3 5.8 5.0 1.3 1.2 2.2 1.9 2.0 2.9
0.1 -0.5 -0.8 -0.9 -0.7 -0.6 -0.7 -0.5 -0.3 -0.1 0.2 0.3 0.6 1.4 4.8 5.4 4.3 4.5 4.2 4.6 4.5 4.9 5.6 5.0 5.0 5.7 5.6 6.5 5.7 5.6 6.5 6.5 6.3 6.1 6.4 5.8 6.5 6.5 4.0 2.9 2.2 2.3 2.2 2.4 2.5
-0.0 -0.5 -0.9 -1.2 -1.0 -0.9 -0.8 -0.4 -0.3 -0.0 0.5 1.0 1.4 2.6 4.5 5.0 4.2 5.2 4.9 4.9 5.0 5.1 5.1 4.8 4.8 5.4 5.8 5.7 5.9 6.5 6.5 6.5 6.5 6.2 6.2 6.4 6.5 6.5 2.2 3.1 3.4 2.7 2.3 2.6 2.6
-0.2 -0.7 -1.1 -1.3 -0.9 -1.0 -0.8 -0.0 0.1 0.4 1.2 1.7 2.8 4.3 6.0 5.5 5.4 5.3 5.2 5.6 5.4 5.3 5.2 5.1 5.6 5.1 5.7 6.5 6.5 6.5 6.5 6.5 6.5 5.9 6.5 6.5 6.5 6.4 3.2 3.4 3.7 3.0 2.3 2.2 2.2
-0.3 -0.9 -1.3 -1.3 -0.9 -0.8 0.1 1.3 1.1 1.6 2.2 3.0 4.5 5.6 5.3 5.8 5.3 5.3 5.3 5.9 6.0 5.4 5.6 5.8 3.1 6.5 6.5 6.5 6.5 6.5 6.5 6.5 6.5 6.5 6.5 6.5 6.5 6.5 4.3 3.9 3.1 2.2 2.1 1.9 2.1
-0.2 -0.9 -1.2 -1.0 -0.8 -0.3 0.4 1.4 3.8 4.5 4.6 5.6 5.8 6.0 5.4 4.8 5.3 5.5 5.4 6.0 6.2 6.1 6.5 5.9 6.5 6.5 6.5 6.5 6.5 6.5 6.5 6.5 6.5 6.5 6.5 6.5 6.5 6.5 4.8 4.1 3.7 2.3 1.4 1.4 1.5
-0.3 -0.8 -1.0 -0.9 -0.6 0.5 0.3 3.4 4.2 3.6 5.8 5.4 5.5 5.3 5.1 5.4 5.7 5.7 5.6 6.0 6.1 6.5 6.5 6.5 6.5 6.5 6.5 6.5 6.5 6.5 6.5 6.5 6.5 6.5 6.5 6.5 6.5 6.5 6.4 5.7 5.1 3.9 1.5 1.2 2.1
-0.3 -0.6 -0.9 -0.6 0.1 0.4 2.3 3.3 1.0 2.3 5.4 6.2 6.1 6.0 5.6 5.7 5.9 5.4 5.5 5.6 6.4 6.5 6.5 6.5 6.5 6.5 6.5 6.5 6.5 6.5 6.5 6.5 6.5 6.5 6.5 6.5 6.5 6.5 6.5 6.1 4.5 4.2 1.5 1.3 1.2
-0.2 -0.3 -0.6 -0.1 1.8 1.9 2.6 1.7 1.4 1.8 6.5 6.5 6.4 6.0 6.0 6.0 6.3 5.5 5.0 5.8 6.4 6.5 6.5 6.5 6.5 6.5 6.5 6.5 6.5 6.5 6.5 6.5 6.5 6.5 6.5 6.5 6.5 6.5 6.5 6.5 6.4 4.3 2.2 1.2 1.8
-0.2 -0.4 -0.3 0.4 1.3 2.8 2.0 1.0 1.5 3.0 6.5 6.5 6.5 5.9 6.1 6.1 5.7 6.2 5.3 6.0 6.5 6.5 6.5 6.5 6.5 6.5 6.5 6.5 6.5 6.5 6.5 6.5 6.5 6.5 6.5 6.5 6.5 6.5 6.5 6.5 6.5 6.1 4.4 2.8 1.2
-0.5 -0.4 0.1 0.7 0.1 1.1 0.7 1.5 2.6 6.5 6.5 6.5 6.2 6.4 6.5 6.4 6.3 5.9 6.1 5.8 5.9 6.5 6.5 6.5 6.1 6.5 6.5 6.5 6.5 6.5 6.5 6.5 6.5 6.5 6.5 6.5 6.5 6.5 6.5 6.5 6.5 6.1 4.0 3.7 3.3
-0.3 -0.1 0.4 1.0 2.6 0.6 0.2 2.6 6.5 6.5 6.5 6.5 6.5 6.5 6.5 6.5 6.5 6.5 6.5 6.5 6.5 6.5 6.5 6.5 6.5 6.5 6.3 6.5 6.5 6.5 6.5 6.5 6.5 6.5 6.5 6.5 6.5 6.5 6.5 6.5 6.5 6.3 4.5 3.1 2.1
-0.2 0.6 0.8 1.0 0.7 0.7 1.5 6.2 6.5 6.5 6.5 6.5 6.5 6.5 6.5 6.5 6.5 6.5 6.5 6.5 6.5 6.5 6.5 6.5 6.5 6.5 6.5 6.5 6.5 6.5 6.5 6.5 6.5 6.5 6.5 6.5 6.5 6.5 6.5 6.0 5.0 4.5 4.0 3.0 2.3
0.4 0.2 1.0 0.9 1.0 0.4 3.6 6.5 6.5 6.5 6.5 6.5 6.5 6.5 6.5 6.5 6.5 6.5 6.5 6.5 6.5 6.5 6.5 6.5 6.5 6.5 6.5 6.5 6.5 6.5 6.5 6.5 6.5 6.5 6.5 6.5 6.5 6.5 6.5 6.5 5.8 5.0 4.1 4.0 3.4
1.3 1.7 2.3 1.4 1.1 2.1 5.9 6.5 6.5 6.5 6.5 6.5 6.5 6.5 6.5 6.5 6.5 6.5 6.5 6.5 6.5 6.5 6.3 6.5 6.5 6.5 6.5 6.5 6.4 6.5 6.5 6.5 6.5 6.5 6.5 6.5 6.5 6.5 6.5 6.5 6.5 6.3 5.3 4.7 4.3
1.9 3.9 3.0 1.5 1.2 3.0 6.5 6.5 6.5 6.4 6.3 6.5 6.5 6.5 6.5 6.5 6.5 6.5 6.5 6.5 6.5 6.5 6.3 6.5 6.5 6.5 6.5 6.5 6.5 6.5 6.5 6.5 6.5 6.5 6.5 6.5 6.5 6.5 6.5 6.5 6.5 6.2 5.7 5.0 4.5
2.2 6.4 2.6 1.3 5.4 5.4 6.5 6.5 6.5 6.5 5.6 6.5 6.5 6.5 6.5 6.5 6.5 6.5 6.5 6.5 6.0 6.4 6.5 6.5 6.5 6.5 6.5 6.5 6.5 6.5 6.5 6.5 6.5 6.5 6.5 6.5 6.5 6.5 6.5 4.3 1.8 2.9 3.1 3.2 2.7
3.1 3.7 3.0 3.4 6.5 6.5 6.5 6.5 6.4 6.5 6.5 6.5 6.5 6.5 6.5 6.5 6.5 6.5 6.5 6.4 6.3 6.5 6.5 6.5 6.5 6.5 6.5 6.5 6.5 6.5 6.5 6.5 6.5 6.5 6.5 6.5 6.5 6.5 5.9 6.4 4.5 3.2 4.8 4.5 3.8
3.3 6.5 4.5 2.3 3.9 6.4 6.5 6.5 6.5 6.4 6.5 6.3 6.5 6.4 6.5 6.5 6.5 6.5 6.5 6.5 6.2 6.3 6.8 6.3 6.5 6.5 6.5 6.5 6.5 6.5 6.5 6.5 6.5 6.5 6.5 6.5 6.5 6.5 6.5 6.5 4.4 3.8 3.4 3.1 3.0
1.9 5.9 5.7 6.5 6.2 6.5 6.5 6.5 6.5 6.5 6.4 6.3 6.5 6.5 6.5 6.5 6.5 6.5 6.5 6.5 6.4 6.7 6.2 6.5 6.5 6.5 6.5 6.5 6.5 6.5 6.5 6.5 6.5 6.5 6.5 6.5 6.5 6.5 6.5 6.5 1.6 -0.8 -0.1 2.5 3.0
3.0 4.4 3.6 5.4 5.9 6.5 6.5 6.5 6.5 6.5 6.5 6.5 6.5 6.5 6.5 6.5 6.5 6.5 6.5 6.5 6.5 6.5 6.5 6.5 6.5 6.5 6.5 6.5 6.5 6.5 6.5 6.5 6.5 6.5 6.5 6.5 6.5 6.5 2.0 5.4 6.0 3.3 -0.9 -0.8 -0.8
1.0 2.3 1.8 6.0 6.4 6.5 6.5 6.5 6.5 6.4 6.4 6.2 6.5 6.5 6.5 6.5 5.9 5.7 4.6 4.9 6.2 6.5 6.5 6.5 6.5 6.5 6.5 6.5 6.5 6.5 6.5 6.5 6.5 6.5 6.5 6.5 6.5 6.4 6.5 5.2 -0.5 -0.6 -2.5 -1.8 -0.5
Wind_Speed
8 8 6 6 6 5 5 5 5 5 4 4 3 4 5 6 5 2 2 2 3 2 0 1 0 1 3 1 1 3 4 1 2 2 3 1 2 1 3 6 3 4 5 4 11
8 9 7 7 6 5 5 5 5 5 4 4 3 3 4 4 0 3 2 2 3 2 1 3 3 3 2 1 1 4 4 6 1 1 3 1 1 4 3 3 3 3 5 13 12
9 8 9 7 6 5 5 6 5 5 5 4 3 3 3 3 1 2 3 3 3 3 1 0 2 1 1 2 2 3 4 4 3 1 1 1 1 1 6 4 6 8 10 13 8
12 10 9 8 7 5 6 6 5 5 6 5 4 3 3 2 1 1 3 3 3 3 1 2 3 3 2 3 3 3 1 2 3 1 1 2 1 3 5 4 4 12 18 15 12
12 12 10 9 9 7 6 6 6 6 5 5 4 3 2 1 4 3 3 2 2 2 2 3 3 2 2 3 2 3 3 3 2 1 1 1 3 4 4 1 6 13 12 13 12
12 12 12 10 10 8 7 4 5 6 6 4 4 2 1 2 2 4 5 3 2 1 2 3 4 3 1 3 3 3 3 2 2 1 1 1 2 1 1 7 8 13 11 9 11
13 13 12 10 10 9 7 6 6 5 5 3 2 1 1 4 1 4 4 2 1 2 2 1 2 2 2 2 2 3 2 1 3 3 1 2 6 8 5 8 10 9 9 9 9
13 12 12 11 11 9 8 8 6 4 3 3 3 1 4 1 1 2 1 2 1 1 1 1 1 3 2 2 4 1 4 2 1 5 1 2 8 4 8 11 10 10 8 10 10
13 13 11 10 11 10 9 6 4 3 2 3 1 2 2 1 2 1 1 2 2 1 2 1 1 3 3 5 4 4 2 3 3 6 2 3 6 2 7 8 9 9 9 10 9
15 14 12 10 10 9 6 2 4 4 0 2 2 1 0 2 2 0 1 2 2 2 3 2 4 3 3 3 4 5 3 3 3 3 3 3 11 7 6 8 11 9 8 9 11
16 14 12 10 10 6 0 2 2 1 1 3 2 2 3 1 1 2 2 2 2 3 4 0 3 6 8 6 3 1 2 3 2 2 2 6 9 10 8 8 10 9 8 9 10
16 15 12 10 7 2 1 2 2 1 1 1 2 3 2 2 2 1 1 3 3 4 3 4 4 3 3 3 4 3 3 4 0 1 1 4 11 13 7 9 13 13 9 10 6
15 14 12 9 3 0 2 1 1 1 3 0 1 3 2 2 1 4 2 3 3 4 5 6 2 1 3 2 3 1 4 3 4 2 1 5 8 5 2 0 3 4 6 5 10
14 14 11 8 1 1 0 1 1 0 3 2 2 0 2 2 1 1 1 2 1 7 5 2 1 3 2 2 3 3 3 2 3 4 3 3 5 6 4 5 6 5 4 7 7
13 12 9 2 1 2 2 0 1 2 2 3 2 1 2 4 4 2 1 1 3 3 5 4 1 2 2 2 1 3 2 3 4 5 4 1 4 8 4 4 3 5 5 3 6
13 11 9 3 1 1 1 1 2 5 5 3 3 4 3 2 1 1 2 3 2 3 5 2 2 3 2 2 2 4 5 7 5 3 2 5 4 5 3 4 6 4 6 5 4
12 9 2 1 1 2 3 3 4 4 1 3 3 3 3 3 1 3 3 3 3 4 3 2 2 2 3 2 4 5 5 2 4 3 5 2 3 6 3 4 2 4 6 6 5
11 4 3 2 2 3 2 3 3 2 3 1 2 2 3 4 2 3 4 3 4 3 3 4 4 1 5 2 5 3 6 5 6 3 2 1 5 4 1 3 4 4 4 7 7
6 1 1 1 3 2 4 2 6 4 3 5 2 3 3 2 4 3 2 4 0 2 6 4 1 1 3 2 2 2 2 2 6 3 3 3 3 3 3 3 4 6 7 6 6
1 2 1 1 4 3 3 5 4 0 0 1 6 2 6 4 4 4 5 2 2 1 2 3 2 1 0 1 3 3 1 3 3 1 4 4 3 4 5 4 3 3 5 5 5
2 2 1 4 3 4 3 4 2 0 1 1 3 3 2 4 5 3 3 1 0 2 3 3 3 1 1 2 5 1 1 2 2 3 4 1 5 3 5 6 7 4 2 4 5
2 1 1 2 3 1 3 3 1 2 4 1 3 2 3 2 2 2 3 1 3 1 3 1 4 3 2 1 1 1 2 3 4 4 1 3 6 2 5 4 3 2 5 5 5
3 2 1 1 3 1 1 3 2 1 2 2 2 1 1 3 3 2 3 0 1 2 5 4 1 2 5 3 1 1 1 3 3 2 5 4 5 1 2 3 4 4 3 5 5
2 2 3 3 2 6 5 3 3 2 2 3 2 2 2 2 3 4 2 1 2 2 5 2 2 6 6 4 4 2 3 3 4 3 3 6 4 5 7 8 4 2 3 4 6
3 1 1 1 2 3 3 4 3 2 2 2 3 2 3 3 2 3 3 2 2 3 3 3 3 1 3 2 2 4 5 6 7 5 6 5 7 7 10 9 5 4 3 2 4
3 3 3 2 1 3 4 1 3 2 1 1 4 2 2 3 2 6 4 3 2 1 2 3 1 3 5 4 3 4 9 6 3 1 6 2 11 5 2 2 2 5 4 4 5
1 2 4 4 2 3 1 2 3 5 2 2 3 3 3 4 3 2 4 4 3 4 3 3 4 3 5 5 5 5 8 6 3 3 6 5 7 3 4 5 5 6 6 6 6
Wind_Direction
325 314 316 310 309 309 298 289 286 291 295 302 319 306 318 328 311 173 233 167 210 251 299 330 327 34 68 78 51 82 64 217 237 173 193 265 124 36 73 94 54 356 156 190 140
337 324 314 309 310 307 295 289 279 280 291 281 286 302 334 332 41 250 170 194 223 209 138 113 113 127 33 146 29 93 119 213 160 212 205 110 169 159 123 109 34 23 13 139 123
338 330 320 313 303 304 290 278 283 287 275 279 294 299 325 353 147 218 199 229 207 189 169 333 88 181 151 154 179 156 179 181 188 180 28 158 114 251 121 232 187 181 156 151 136
342 338 328 315 306 303 296 294 281 271 276 283 305 322 318 219 178 242 209 222 211 179 236 143 119 144 160 184 206 157 169 155 173 182 113 171 339 267 189 235 187 164 161 159 162
343 338 332 324 310 314 301 294 289 273 268 275 292 288 199 155 250 175 170 186 156 164 201 137 127 162 178 199 143 169 186 117 135 164 118 56 251 257 237 138 96 136 158 169 168
343 343 333 327 312 314 298 288 274 271 256 249 253 259 138 235 146 162 150 153 195 177 229 158 173 171 196 178 177 170 155 153 174 210 48 250 284 113 208 133 123 152 173 175 176
339 341 334 326 314 307 304 300 289 277 270 281 257 21 150 223 120 160 174 181 146 178 197 87 163 143 126 114 182 123 102 4 197 185 241 145 280 237 155 152 154 176 183 184 189
340 338 334 326 316 311 308 288 266 253 242 203 178 189 231 250 70 117 129 34 323 185 118 131 108 112 98 136 32 64 54 11 309 136 122 116 269 316 164 154 184 187 191 193 201
338 336 333 330 314 313 309 299 246 191 170 154 158 174 250 321 126 178 144 193 133 59 32 92 97 104 66 96 16 5 219 202 306 197 124 170 269 300 166 177 199 201 197 196 200
336 334 334 329 315 315 305 222 140 127 162 216 258 63 41 209 123 295 6 136 139 101 50 75 53 77 49 99 217 203 213 229 220 208 183 211 262 272 213 202 219 215 211 200 194
333 335 332 329 320 307 330 83 59 3 225 187 177 131 135 40 54 30 357 112 107 60 153 268 101 202 217 197 174 133 200 232 297 134 207 237 268 265 237 227 237 223 215 208 205
332 331 331 329 322 264 154 211 197 155 146 331 126 82 86 195 99 353 7 147 151 185 131 42 225 214 188 172 195 197 187 258 64 157 176 305 276 270 221 229 223 212 201 204 159
329 328 331 333 323 132 183 181 295 248 125 61 183 150 187 139 180 189 152 173 170 166 180 162 184 153 177 165 161 89 179 190 192 359 317 328 298 313 322 335 286 191 158 160 176
326 327 332 339 15 200 232 172 281 348 67 210 202 175 128 149 234 243 340 184 204 195 160 195 333 175 169 161 129 220 187 156 118 83 220 48 271 297 342 11 31 19 131 166 153
319 325 333 311 236 143 150 246 16 58 357 164 174 136 144 163 148 24 312 57 183 169 103 240 163 143 161 126 348 198 103 101 87 90 45 300 86 270 354 36 17 16 37 148 173
322 325 331 143 94 136 109 57 58 53 255 150 138 177 129 152 127 105 71 55 57 96 47 90 53 46 82 83 57 135 71 42 53 77 29 245 137 284 345 305 307 11 33 43 161
321 310 328 118 176 145 95 65 52 151 94 186 188 163 176 160 171 156 144 40 153 124 212 46 16 15 37 96 25 75 69 352 354 6 220 221 70 246 335 320 280 97 61 36 48
312 298 38 99 128 113 73 62 204 198 193 86 137 99 186 159 180 152 115 142 43 89 110 160 300 61 348 47 176 158 144 156 206 205 256 17 233 257 128 26 56 58 68 48 36
300 344 50 289 117 86 84 101 216 199 156 155 93 164 210 188 170 123 73 159 148 50 166 146 227 1 49 15 76 188 182 156 102 51 60 234 299 320 140 68 43 44 46 36 29
159 95 262 107 128 82 88 231 192 98 63 147 185 183 185 182 159 164 180 237 167 162 166 180 109 0 60 114 41 131 203 75 2 161 260 282 263 223 179 154 119 62 55 27 25
84 91 217 129 85 61 177 203 146 246 206 157 190 147 150 173 177 169 158 9 136 124 88 120 93 254 65 182 181 58 327 36 121 140 186 243 260 214 167 170 153 149 53 15 12
113 112 295 125 69 39 150 147 114 163 19 101 96 92 147 135 96 110 159 99 164 175 129 85 139 183 214 249 128 240 190 147 131 262 92 154 269 2 148 164 147 260 322 342 348
138 151 356 127 162 149 183 73 75 108 41 64 108 42 143 133 116 127 111 74 133 105 164 199 13 34 336 5 97 176 185 129 102 76 211 142 262 91 110 161 222 233 268 307 315
101 125 345 50 33 135 149 150 115 31 83 72 110 67 100 98 52 145 124 180 94 96 112 112 147 172 196 196 128 148 186 190 128 129 201 221 263 265 226 221 266 281 313 311 302
30 194 210 147 360 106 95 131 133 124 34 44 50 79 151 131 101 135 125 109 48 108 70 98 185 261 294 271 181 195 184 188 193 202 188 260 206 237 223 210 233 237 283 306 315
133 130 29 73 40 73 22 67 140 140 91 228 147 137 105 137 159 188 137 167 174 107 87 30 229 77 312 356 128 221 232 209 224 254 293 50 279 210 298 78 221 232 235 237 258
347 47 104 334 46 82 173 138 153 124 14 44 128 114 131 140 101 85 77 87 92 152 126 98 117 72 263 338 333 338 227 187 186 207 165 211 245 169 188 208 230 236 217 230 243